Location: Newark
(36.0797°N, 3.9744°E)
Time: 07:54:14
(UTC+00:00)

Vanguard 2 - Visible Passes

Search period start: 06 December 2019 00:00
Search period end: 16 December 2019 00:00
Orbit: 553 x 2938 km, 32.9° (Epoch: 05 December)

Date Brightness Start Highest point End Pass type
(mag) Time Alt. Az. Time Alt. Az. Time Alt. Az.
06 Dec 11.4 00:44:10 25° E 00:44:10 25° E 00:50:29 10° E visible
06 Dec 10.2 02:45:34 65° S 02:46:53 67° SSE 03:02:55 10° E visible
06 Dec 10.2 04:47:00 25° W 04:59:45 80° S 05:13:17 10° E visible
07 Dec 11.2 01:01:07 31° E 01:01:07 31° E 01:09:04 10° E visible
07 Dec 10.2 03:02:32 67° SSW 03:05:00 73° SSE 03:21:04 10° E visible
07 Dec 10.2 05:03:56 21° W 05:17:58 79° S 05:31:17 10° ESE visible
08 Dec 11.0 01:18:00 38° E 01:18:00 38° E 01:27:28 10° E visible
08 Dec 10.2 03:19:25 63° SW 03:23:12 77° S 03:39:12 10° E visible
08 Dec 10.2 05:20:49 17° W 05:36:08 76° SSW 05:49:13 10° ESE visible
09 Dec 10.8 01:34:51 45° ESE 01:34:51 45° ESE 01:45:45 10° E visible
09 Dec 10.2 03:36:15 57° WSW 03:41:26 80° S 03:57:17 10° E visible
09 Dec 10.3 05:37:40 13° W 05:54:14 70° SSW 06:07:04 10° ESE visible
09 Dec 11.9 23:50:15 11° E 23:50:15 11° E 23:50:40 10° E visible
10 Dec 10.6 01:51:39 54° ESE 01:51:39 54° ESE 02:04:00 10° E visible
10 Dec 10.2 03:53:03 50° WSW 03:59:43 80° S 04:15:22 10° E visible
10 Dec 10.4 05:54:48 10° W 06:12:12 63° SSW 06:24:47 10° SE visible
11 Dec 11.8 00:07:02 15° E 00:07:02 15° E 00:09:15 10° E visible
11 Dec 10.4 02:08:26 62° ESE 02:08:26 62° ESE 02:22:12 10° E visible
11 Dec 10.2 04:09:50 43° W 04:17:57 78° S 04:33:25 10° ESE visible
11 Dec 10.5 06:13:09 10° W 06:30:03 55° SSW 06:42:19 10° SE visible
12 Dec 11.6 00:23:48 20° E 00:23:48 20° E 00:27:40 10° E visible
12 Dec 10.3 02:25:12 71° ESE 02:25:12 71° ESE 02:40:23 10° E visible
12 Dec 10.3 04:26:36 36° W 04:36:08 75° SSW 04:51:22 10° ESE visible
13 Dec 11.4 00:40:33 25° E 00:40:33 25° E 00:45:59 10° E visible
13 Dec 10.1 02:41:57 79° SSE 02:41:57 79° SSE 02:58:33 10° E visible
13 Dec 10.3 04:43:21 31° W 04:54:15 69° SSW 05:09:13 10° ESE visible
14 Dec 11.2 00:57:19 30° E 00:57:19 30° E 01:04:16 10° E visible
14 Dec 10.1 02:58:43 79° SSW 02:59:23 80° S 03:16:41 10° E visible
14 Dec 10.4 05:00:07 25° W 05:12:14 62° SSW 05:26:54 10° SE visible
15 Dec 11.1 01:14:05 36° E 01:14:05 36° E 01:22:33 10° E visible
15 Dec 10.1 03:15:29 72° WSW 03:17:37 77° S 03:34:46 10° ESE visible
15 Dec 10.5 05:16:53 20° W 05:30:06 54° SSW 05:44:23 10° SE visible
